User: anonymous   Login
Location: Unspecified
(0.0000°N, 0.0000°E)
Time: 06:32:13
(UTC+02:00)
Language:

Cosmos 773 Rocket - Orbit

View from above orbital plane
View from above orbital plane
View from above satellite
View from above satellite

Ground track
Ground track

The orbit data is extracted from the following two-line orbital elements,

1 08344U 75094B   16207.88441198  .00000007  00000-0  10661-4 0  9998
2 08344  74.0576   6.8731 0022115 347.6529  12.4081 14.39059477138740
Epoch (UTC): 25 July 2016 21:13:33
Eccentricity: 0.0022115
inclination: 74.0576°
perigee height: 746 km
apogee height: 777 km
right ascension of ascending node: 6.8731°
argument of perigee: 347.6529°
revolutions per day: 14.39059477
mean anomaly at epoch: 12.4081°
orbit number at epoch: 13874

The dashed part of the orbit path shows where the satellite is in the earth's shadow,  

DLR